Time,TemperatureF,DewpointF,PressureIn,WindDirection,WindDirectionDegrees,WindSpeedMPH,WindSpeedGustMPH,Humidity,HourlyPrecipIn,Conditions,Clouds,dailyrainin,SoftwareType,DateUTC
2013-07-22 00:01:00,76.0,71.0,-100.00,NE,40,3.0,7.0,83,-99.99,,,-99.99,,2013-07-22 04:01:00,
2013-07-22 00:12:00,76.0,71.0,-100.00,NE,55,2.0,3.0,84,-99.99,,,-99.99,,2013-07-22 04:12:00,
2013-07-22 00:33:00,76.0,70.0,-100.00,NE,55,2.0,2.0,82,-99.99,,,-99.99,,2013-07-22 04:33:00,
2013-07-22 00:43:00,76.0,69.0,-100.00,NE,55,4.0,7.0,78,-99.99,,,-99.99,,2013-07-22 04:43:00,
2013-07-22 01:02:00,77.0,69.0,-100.00,NE,55,3.0,3.0,76,-99.99,,,-99.99,,2013-07-22 05:02:00,
2013-07-22 01:11:00,77.0,69.0,-100.00,NE,55,6.0,8.0,76,-99.99,,,-99.99,,2013-07-22 05:11:00,
2013-07-22 01:32:00,76.0,70.0,-100.00,ENE,70,3.0,6.0,82,-99.99,,,-99.99,,2013-07-22 05:32:00,
2013-07-22 01:43:00,76.0,71.0,-100.00,ENE,70,5.0,6.0,86,-99.99,,,-99.99,,2013-07-22 05:43:00,
2013-07-22 01:52:00,75.0,71.0,-100.00,ENE,65,4.0,11.0,88,-99.99,,,-99.99,,2013-07-22 05:52:00,
2013-07-22 02:01:00,75.0,71.0,-100.00,ENE,65,4.0,11.0,88,-99.99,,,-99.99,,2013-07-22 06:01:00,
2013-07-22 02:11:00,75.0,71.0,-100.00,NE,55,5.0,6.0,88,-99.99,,,-99.99,,2013-07-22 06:11:00,
2013-07-22 02:22:00,75.0,71.0,-100.00,NE,55,5.0,6.0,88,-99.99,,,-99.99,,2013-07-22 06:22:00,
2013-07-22 02:33:00,75.0,71.0,-100.00,NE,45,3.0,5.0,88,-99.99,,,-99.99,,2013-07-22 06:33:00,
2013-07-22 02:43:00,75.0,71.0,-100.00,North,5,3.0,4.0,88,-99.99,,,-99.99,,2013-07-22 06:43:00,
2013-07-22 02:52:00,74.0,71.0,-100.00,North,5,3.0,5.0,88,-99.99,,,-99.99,,2013-07-22 06:52:00,
2013-07-22 03:01:00,74.0,71.0,-100.00,North,5,3.0,5.0,88,-99.99,,,-99.99,,2013-07-22 07:01:00,
2013-07-22 03:12:00,74.0,71.0,-100.00,NE,35,2.0,3.0,88,-99.99,,,-99.99,,2013-07-22 07:12:00,
2013-07-22 03:22:00,74.0,71.0,-100.00,NE,35,2.0,3.0,88,-99.99,,,-99.99,,2013-07-22 07:22:00,
2013-07-22 03:33:00,74.0,71.0,-100.00,NE,35,4.0,5.0,88,-99.99,,,-99.99,,2013-07-22 07:33:00,
2013-07-22 03:43:00,74.0,70.0,-100.00,NE,40,4.0,6.0,88,-99.99,,,-99.99,,2013-07-22 07:43:00,
2013-07-22 04:02:00,74.0,70.0,-100.00,North,5,3.0,4.0,88,-99.99,,,-99.99,,2013-07-22 08:02:00,
2013-07-22 04:11:00,74.0,70.0,-100.00,North,5,1.0,4.0,88,-99.99,,,-99.99,,2013-07-22 08:11:00,
2013-07-22 04:32:00,74.0,70.0,-100.00,North,5,6.0,8.0,88,-99.99,,,-99.99,,2013-07-22 08:32:00,
2013-07-22 04:43:00,73.0,69.0,-100.00,North,5,3.0,10.0,89,-99.99,,,-99.99,,2013-07-22 08:43:00,
2013-07-22 04:52:00,73.0,69.0,-100.00,North,10,2.0,4.0,89,-99.99,,,-99.99,,2013-07-22 08:52:00,
2013-07-22 05:02:00,73.0,69.0,-100.00,North,10,2.0,4.0,89,-99.99,,,-99.99,,2013-07-22 09:02:00,
2013-07-22 05:11:00,73.0,70.0,-100.00,NNE,20,2.0,4.0,89,-99.99,,,-99.99,,2013-07-22 09:11:00,
2013-07-22 05:33:00,74.0,70.0,-100.00,NNE,20,3.0,4.0,88,-99.99,,,-99.99,,2013-07-22 09:33:00,
2013-07-22 05:42:00,74.0,71.0,-100.00,NNE,20,2.0,3.0,88,-99.99,,,-99.99,,2013-07-22 09:42:00,
2013-07-22 05:52:00,74.0,71.0,-100.00,NNE,20,0.0,2.0,88,-99.99,,,-99.99,,2013-07-22 09:52:00,
2013-07-22 06:02:00,74.0,71.0,-100.00,NNE,20,0.0,2.0,88,-99.99,,,-99.99,,2013-07-22 10:02:00,
2013-07-22 06:11:00,74.0,71.0,-100.00,NNE,20,0.0,0.0,89,-99.99,,,-99.99,,2013-07-22 10:11:00,
2013-07-22 06:32:00,74.0,71.0,-100.00,NNE,25,0.0,2.0,88,-99.99,,,-99.99,,2013-07-22 10:32:00,
2013-07-22 06:43:00,75.0,71.0,-100.00,NNE,25,0.0,0.0,88,-99.99,,,-99.99,,2013-07-22 10:43:00,
2013-07-22 06:53:00,75.0,71.0,-100.00,NNE,25,0.0,0.0,88,-99.99,,,-99.99,,2013-07-22 10:53:00,
2013-07-22 07:02:00,75.0,71.0,-100.00,NNE,25,0.0,0.0,88,-99.99,,,-99.99,,2013-07-22 11:02:00,
2013-07-22 07:11:00,75.0,71.0,-100.00,NNE,30,0.0,1.0,88,-99.99,,,-99.99,,2013-07-22 11:11:00,
2013-07-22 07:32:00,76.0,72.0,-100.00,ENE,75,0.0,2.0,88,-99.99,,,-99.99,,2013-07-22 11:32:00,
2013-07-22 07:43:00,79.0,72.0,-100.00,SE,130,2.0,3.0,79,-99.99,,,-99.99,,2013-07-22 11:43:00,
2013-07-22 08:53:00,80.0,70.0,-100.00,NNE,30,3.0,7.0,70,-99.99,,,-99.99,,2013-07-22 12:53:00,
2013-07-22 09:01:00,80.0,70.0,-100.00,NNE,30,3.0,7.0,70,-99.99,,,-99.99,,2013-07-22 13:01:00,
2013-07-22 09:11:00,78.0,70.0,-100.00,NE,50,2.0,4.0,75,-99.99,,,-99.99,,2013-07-22 13:11:00,
2013-07-22 09:22:00,78.0,70.0,-100.00,NE,50,2.0,4.0,75,-99.99,,,-99.99,,2013-07-22 13:22:00,
2013-07-22 09:43:00,78.0,70.0,-100.00,NE,50,1.0,3.0,78,-99.99,,,-99.99,,2013-07-22 13:43:00,
2013-07-22 09:53:00,78.0,70.0,-100.00,NE,50,1.0,3.0,78,-99.99,,,-99.99,,2013-07-22 13:53:00,
2013-07-22 10:32:00,80.0,69.0,-100.00,NE,50,3.0,4.0,69,-99.99,,,-99.99,,2013-07-22 14:32:00,
2013-07-22 10:43:00,82.0,69.0,-100.00,NNE,30,1.0,4.0,64,-99.99,,,-99.99,,2013-07-22 14:43:00,
2013-07-22 10:53:00,82.0,69.0,-100.00,NNE,30,1.0,4.0,64,-99.99,,,-99.99,,2013-07-22 14:53:00,
2013-07-22 11:02:00,82.0,69.0,-100.00,NE,35,2.0,4.0,64,-99.99,,,-99.99,,2013-07-22 15:02:00,
2013-07-22 11:11:00,81.0,69.0,-100.00,NE,45,2.0,4.0,67,-99.99,,,-99.99,,2013-07-22 15:11:00,
2013-07-22 11:33:00,82.0,69.0,-100.00,NE,40,1.0,3.0,66,-99.99,,,-99.99,,2013-07-22 15:33:00,
2013-07-22 11:43:00,82.0,69.0,-100.00,NE,40,3.0,4.0,66,-99.99,,,-99.99,,2013-07-22 15:43:00,
2013-07-22 11:52:00,82.0,69.0,-100.00,NE,40,3.0,4.0,66,-99.99,,,-99.99,,2013-07-22 15:52:00,
2013-07-22 12:01:00,83.0,69.0,-100.00,NNE,30,3.0,4.0,64,-99.99,,,-99.99,,2013-07-22 16:01:00,
2013-07-22 12:11:00,84.0,69.0,-100.00,NNE,25,2.0,5.0,61,-99.99,,,-99.99,,2013-07-22 16:11:00,
2013-07-22 12:52:00,82.0,70.0,-100.00,NE,35,3.0,4.0,66,-99.99,,,-99.99,,2013-07-22 16:52:00,
2013-07-22 13:02:00,82.0,70.0,-100.00,NNE,25,6.0,7.0,66,-99.99,,,-99.99,,2013-07-22 17:02:00,
2013-07-22 13:11:00,83.0,70.0,-100.00,NNE,25,3.0,6.0,65,-99.99,,,-99.99,,2013-07-22 17:11:00,
2013-07-22 13:23:00,83.0,70.0,-100.00,NNE,25,3.0,6.0,65,-99.99,,,-99.99,,2013-07-22 17:23:00,
2013-07-22 13:32:00,83.0,70.0,-100.00,NNE,25,6.0,8.0,66,-99.99,,,-99.99,,2013-07-22 17:32:00,
2013-07-22 13:43:00,83.0,70.0,-100.00,NNE,25,7.0,11.0,66,-99.99,,,-99.99,,2013-07-22 17:43:00,
2013-07-22 13:52:00,83.0,70.0,-100.00,NNE,25,7.0,11.0,66,-99.99,,,-99.99,,2013-07-22 17:52:00,
2013-07-22 14:05:00,83.0,71.0,-100.00,NNE,25,5.0,11.0,67,-99.99,,,-99.99,,2013-07-22 18:05:00,
2013-07-22 14:17:00,84.0,71.0,-100.00,NNE,30,5.0,12.0,65,-99.99,,,-99.99,,2013-07-22 18:17:00,
2013-07-22 14:59:00,82.0,72.0,-100.00,NE,35,6.0,12.0,71,-99.99,,,-99.99,,2013-07-22 18:59:00,
2013-07-22 15:17:00,83.0,71.0,-100.00,NNE,30,7.0,13.0,66,-99.99,,,-99.99,,2013-07-22 19:17:00,
2013-07-22 15:37:00,84.0,70.0,-100.00,NNE,25,7.0,14.0,64,-99.99,,,-99.99,,2013-07-22 19:37:00,
2013-07-22 15:46:00,84.0,69.0,-100.00,NNE,20,7.0,13.0,62,-99.99,,,-99.99,,2013-07-22 19:46:00,
2013-07-22 15:55:00,84.0,68.0,-100.00,North,10,9.0,15.0,58,-99.99,,,-99.99,,2013-07-22 19:55:00,
2013-07-22 16:05:00,84.0,68.0,-100.00,North,10,9.0,15.0,58,-99.99,,,-99.99,,2013-07-22 20:05:00,
2013-07-22 16:17:00,84.0,67.0,-100.00,North,10,8.0,15.0,56,-99.99,,,-99.99,,2013-07-22 20:17:00,
2013-07-22 16:43:00,82.0,69.0,-100.00,NNE,20,9.0,16.0,64,-99.99,,,-99.99,,2013-07-22 20:43:00,
2013-07-22 16:52:00,82.0,69.0,-100.00,NNE,20,9.0,16.0,64,-99.99,,,-99.99,,2013-07-22 20:52:00,
2013-07-22 17:01:00,81.0,70.0,-100.00,NNE,25,9.0,18.0,68,-99.99,,,-99.99,,2013-07-22 21:01:00,
2013-07-22 17:12:00,81.0,70.0,-100.00,NNE,25,9.0,18.0,68,-99.99,,,-99.99,,2013-07-22 21:12:00,
2013-07-22 17:32:00,81.0,71.0,-100.00,NE,35,12.0,19.0,72,-99.99,,,-99.99,,2013-07-22 21:32:00,
2013-07-22 17:43:00,81.0,72.0,-100.00,NE,35,7.0,16.0,75,-99.99,,,-99.99,,2013-07-22 21:43:00,
2013-07-22 17:53:00,81.0,72.0,-100.00,NE,35,7.0,16.0,75,-99.99,,,-99.99,,2013-07-22 21:53:00,
2013-07-22 18:02:00,80.0,73.0,-100.00,NE,45,6.0,15.0,77,-99.99,,,-99.99,,2013-07-22 22:02:00,
2013-07-22 18:22:00,80.0,73.0,-100.00,NE,45,7.0,15.0,78,-99.99,,,-99.99,,2013-07-22 22:22:00,
2013-07-22 18:32:00,80.0,73.0,-100.00,NE,45,9.0,16.0,79,-99.99,,,-99.99,,2013-07-22 22:32:00,
2013-07-22 18:43:00,79.0,73.0,-100.00,NE,50,7.0,18.0,82,-99.99,,,-99.99,,2013-07-22 22:43:00,
2013-07-22 18:52:00,79.0,73.0,-100.00,NE,50,7.0,18.0,82,-99.99,,,-99.99,,2013-07-22 22:52:00,
2013-07-22 19:02:00,80.0,73.0,-100.00,NE,50,8.0,17.0,81,-99.99,,,-99.99,,2013-07-22 23:02:00,
2013-07-22 19:11:00,80.0,73.0,-100.00,NE,50,7.0,13.0,80,-99.99,,,-99.99,,2013-07-22 23:11:00,
2013-07-22 19:22:00,80.0,73.0,-100.00,NE,50,7.0,13.0,80,-99.99,,,-99.99,,2013-07-22 23:22:00,
2013-07-22 19:32:00,79.0,73.0,-100.00,ENE,60,7.0,14.0,81,-99.99,,,-99.99,,2013-07-22 23:32:00,
2013-07-22 20:01:00,78.0,73.0,-100.00,East,80,9.0,17.0,83,-99.99,,,-99.99,,2013-07-23 00:01:00,
2013-07-22 20:12:00,78.0,73.0,-100.00,ENE,70,6.0,15.0,84,-99.99,,,-99.99,,2013-07-23 00:12:00,
2013-07-22 20:32:00,78.0,73.0,-100.00,ENE,75,9.0,15.0,84,-99.99,,,-99.99,,2013-07-23 00:32:00,
2013-07-22 20:43:00,78.0,73.0,-100.00,ENE,75,8.0,16.0,85,-99.99,,,-99.99,,2013-07-23 00:43:00,
2013-07-22 20:52:00,78.0,73.0,-100.00,ENE,75,8.0,16.0,85,-99.99,,,-99.99,,2013-07-23 00:52:00,
2013-07-22 21:01:00,78.0,73.0,-100.00,ENE,75,10.0,17.0,86,-99.99,,,-99.99,,2013-07-23 01:01:00,
2013-07-22 21:32:00,77.0,73.0,-100.00,ENE,65,13.0,21.0,87,-99.99,,,-99.99,,2013-07-23 01:32:00,
2013-07-22 21:43:00,77.0,73.0,-100.00,ENE,65,8.0,20.0,87,-99.99,,,-99.99,,2013-07-23 01:43:00,
2013-07-22 21:53:00,77.0,73.0,-100.00,ENE,65,8.0,20.0,87,-99.99,,,-99.99,,2013-07-23 01:53:00,
2013-07-22 22:02:00,77.0,73.0,-100.00,ENE,70,13.0,21.0,88,-99.99,,,-99.99,,2013-07-23 02:02:00,
2013-07-22 22:33:00,76.0,72.0,-100.00,NE,40,16.0,26.0,88,-99.99,,,-99.99,,2013-07-23 02:33:00,
2013-07-22 22:43:00,76.0,73.0,-100.00,NE,40,16.0,23.0,89,-99.99,,,-99.99,,2013-07-23 02:43:00,
2013-07-22 22:53:00,76.0,73.0,-100.00,NE,40,16.0,23.0,89,-99.99,,,-99.99,,2013-07-23 02:53:00,
2013-07-22 23:02:00,76.0,72.0,-100.00,NE,40,14.0,22.0,89,-99.99,,,-99.99,,2013-07-23 03:02:00,
2013-07-22 23:11:00,76.0,73.0,-100.00,NE,40,14.0,20.0,89,-99.99,,,-99.99,,2013-07-23 03:11:00,
2013-07-22 23:22:00,76.0,73.0,-100.00,NE,40,14.0,20.0,89,-99.99,,,-99.99,,2013-07-23 03:22:00,
2013-07-22 23:33:00,76.0,73.0,-100.00,NE,45,11.0,20.0,89,-99.99,,,-99.99,,2013-07-23 03:33:00,
2013-07-22 23:43:00,76.0,72.0,-100.00,NE,45,12.0,20.0,89,-99.99,,,-99.99,,2013-07-23 03:43:00,
2013-07-22 23:52:00,76.0,72.0,-100.00,NE,45,12.0,20.0,89,-99.99,,,-99.99,,2013-07-23 03:52:00,